Temperature
22 23 22 22 22 22 23 22 22 22 21 21 20 20 20 19 19 19 18 18 17 17 16 16 15 15 15 15 15 15 14 14 14 14 14 14 13 13 13 13 13 13 13 13
23 22 22 22 22 22 22 22 22 21 21 21 21 20 20 20 19 19 18 18 18 17 16 16 15 15 15 15 15 14 14 14 14 14 13 13 13 13 13 13 13 13 13 13
22 22 21 21 21 22 22 22 22 21 21 21 21 20 20 20 19 18 18 17 17 17 16 16 15 15 15 14 14 14 14 14 14 13 13 13 13 13 13 13 13 13 13 13
22 21 21 21 21 22 22 22 21 21 21 21 21 21 21 20 20 19 18 17 17 16 16 15 15 14 14 14 14 14 14 14 13 13 13 13 13 13 13 12 12 13 12 12
21 21 21 21 21 21 21 21 21 21 21 21 21 21 21 21 20 20 18 17 16 16 15 15 15 15 14 14 14 14 14 14 13 13 13 13 13 12 12 12 12 12 12 12
21 20 21 21 21 21 21 21 21 21 22 21 21 21 21 21 20 20 19 17 16 15 15 15 14 14 14 14 14 14 14 14 13 13 13 13 12 12 12 12 12 12 12 12
21 21 20 20 21 21 21 21 21 21 21 21 21 20 20 20 20 19 18 17 16 15 14 14 14 14 14 14 14 14 14 13 13 13 13 12 12 12 12 12 11 11 11 11
20 20 20 20 20 21 21 21 21 20 21 21 20 20 20 19 18 17 17 16 15 15 14 14 14 14 14 14 13 13 13 13 13 13 12 12 12 12 11 11 11 11 11 11
21 20 20 19 20 21 21 21 21 21 21 20 21 20 19 19 18 18 17 16 15 15 14 14 14 13 13 13 13 13 13 13 12 12 12 12 11 11 11 11 11 11 11 11
21 20 20 19 20 19 20 21 20 21 20 20 20 20 20 19 19 18 17 16 15 15 14 13 13 13 13 13 13 13 12 12 12 12 12 11 11 11 11 11 11 11 11 11
20 20 20 20 20 20 19 20 20 20 20 20 20 20 20 20 19 18 18 16 15 14 14 13 13 13 13 13 13 13 12 12 12 12 11 11 11 11 11 11 10 10 10 10
19 20 20 20 19 19 20 20 20 20 20 20 20 20 19 19 18 17 17 15 15 14 13 13 13 12 12 12 12 12 12 11 11 11 11 11 11 11 10 10 10 10 10 10
19 20 20 20 19 19 19 19 19 20 20 20 20 19 19 18 18 17 16 15 14 13 13 13 12 12 12 12 12 12 11 11 11 11 10 10 10 10 10 10 10 10 10 10
18 19 20 20 20 19 19 18 18 19 19 20 19 19 19 18 18 17 15 15 14 13 13 12 12 12 12 12 11 11 11 11 11 10 10 10 10 10 10 10 10 10 10 10
18 19 19 19 19 18 18 18 18 18 19 19 19 19 19 19 18 16 15 14 14 13 12 12 12 11 11 11 11 11 11 11 10 10 10 10 10 9 9 9 9 9 9 9
18 18 18 18 18 18 17 18 18 18 18 18 18 18 18 17 16 16 15 14 13 13 12 12 11 11 11 11 11 10 10 10 10 10 10 10 9 9 9 9 9 9 9 9
17 18 18 18 18 17 17 18 18 17 17 18 18 18 18 17 16 16 15 14 13 12 12 11 11 11 11 10 10 10 10 10 10 10 10 9 9 9 9 8 8 8 8 8
17 17 17 17 17 17 18 18 17 17 17 17 17 17 17 16 15 14 14 13 13 12 11 11 11 10 10 10 10 10 9 9 9 9 9 9 9 8 8 8 8 8 8 8
16 17 17 17 17 18 17 17 17 17 17 17 17 16 15 14 15 15 13 12 12 11 11 11 10 10 10 10 9 9 9 9 9 9 8 8 8 8 8 8 8 8 7 7
15 16 17 16 16 17 18 17 16 16 16 16 16 15 15 14 16 16 13 12 11 11 10 10 10 10 9 9 9 9 9 8 8 8 8 8 8 8 8 8 7 7 7 7
15 15 15 16 16 17 17 15 15 16 17 15 14 14 14 14 14 13 12 11 11 10 10 10 9 9 9 9 8 8 8 8 8 8 8 8 8 7 7 7 7 7 7 7
16 16 15 16 16 16 15 15 15 16 15 14 14 13 13 12 12 11 11 10 10 10 10 9 9 9 9 8 8 8 8 8 7 7 7 7 7 7 7 7 7 7 6 6
15 16 16 16 16 15 14 14 14 13 13 13 13 12 12 11 11 10 10 10 9 9 9 9 8 8 8 8 8 8 7 7 7 7 7 7 7 7 7 6 6 6 6 6
15 14 14 15 15 14 13 12 12 12 12 12 12 11 11 11 10 10 9 9 9 9 8 8 8 8 8 7 7 7 7 7 7 6 6 6 6 6 6 6 6 6 6 6
14 14 14 14 14 13 12 12 11 11 11 11 11 11 10 10 10 9 9 9 8 8 8 8 7 7 7 7 7 7 7 6 6 6 6 6 6 6 6 6 6 6 6 5
13 13 14 14 14 13 12 11 11 11 10 10 10 10 10 9 9 9 8 8 8 8 7 7 7 7 7 6 6 6 6 6 6 6 5 5 5 5 5 5 5 5 5 5
Wind_Speed
2 2 2 1 2 2 2 3 3 1 2 3 3 2 2 3 4 4 4 4 5 4 4 4 4 3 3 3 2 2 2 2 2 1 1 1 2 2 2 3 4 4 4 4
4 2 1 1 2 3 4 3 2 2 2 3 2 2 1 3 4 4 4 5 6 5 5 5 3 3 3 3 2 2 3 2 2 1 0 1 1 1 2 3 3 4 4 3
3 0 1 2 3 4 4 4 3 2 3 4 3 2 2 2 2 2 3 4 5 5 6 6 5 4 3 3 2 2 3 3 3 2 1 1 1 0 1 1 2 3 3 3
2 1 2 3 2 4 4 3 4 4 5 2 3 3 1 2 2 2 2 3 4 5 5 5 5 5 4 3 3 3 3 3 3 3 2 2 1 0 1 1 1 2 3 3
2 1 2 3 3 4 2 1 3 5 5 4 3 4 2 2 2 1 2 2 3 4 5 5 5 5 4 3 3 3 3 3 3 3 2 2 1 0 0 0 1 1 2 2
2 1 2 3 2 3 4 4 4 5 6 5 4 5 2 2 2 1 1 1 2 2 3 4 4 4 4 3 3 2 2 2 2 2 2 2 1 1 1 0 0 1 1 1
3 2 1 2 2 3 5 5 4 4 4 3 2 4 3 1 1 2 1 1 2 3 3 3 4 4 4 4 3 3 3 3 2 2 2 2 2 2 1 1 1 1 0 0
4 3 1 2 3 4 5 5 4 3 3 2 3 4 0 1 0 1 1 1 2 3 2 3 3 3 3 4 3 3 3 3 2 2 1 1 1 1 1 1 1 1 1 1
3 2 2 1 2 3 4 4 4 4 4 4 3 2 1 2 2 1 1 2 1 2 2 2 2 3 3 3 3 3 3 3 2 2 2 1 1 1 1 1 1 1 0 0
3 3 1 2 3 0 2 2 3 4 4 4 4 4 2 2 2 1 1 0 0 1 1 1 1 2 2 2 2 3 3 3 2 2 2 1 2 1 1 1 1 1 1 0
4 4 2 3 3 3 3 3 3 4 4 4 4 1 1 1 1 1 1 1 1 1 1 1 1 1 1 1 1 3 3 3 2 2 2 2 2 1 1 1 1 2 1 1
3 4 4 4 2 2 4 4 5 5 5 5 5 2 2 0 1 1 1 0 0 1 1 1 1 1 1 1 1 1 2 3 2 2 2 2 2 2 2 2 2 2 2 2
3 4 5 5 5 4 3 3 5 6 6 6 7 3 2 1 1 1 1 0 0 1 1 1 1 1 1 0 0 1 1 2 2 2 2 2 2 2 2 2 2 2 2 2
3 5 6 6 3 2 4 4 5 7 6 7 8 6 3 3 3 2 1 1 1 1 1 0 1 0 0 0 0 1 1 2 2 2 2 3 2 2 2 2 2 3 3 3
3 5 5 6 5 5 6 7 7 9 9 9 7 7 6 4 3 2 1 1 1 1 1 1 1 0 0 0 0 0 1 1 2 3 3 3 3 3 3 3 3 3 3 3
3 4 5 6 5 6 7 8 9 10 10 10 10 9 5 4 3 2 1 1 2 2 2 1 1 1 1 1 1 1 1 1 2 3 3 3 3 3 3 3 4 3 3 4
3 5 5 6 5 6 8 7 8 7 7 8 9 7 4 3 3 3 2 2 2 2 2 2 2 2 2 2 1 2 2 1 2 2 3 3 4 4 4 4 4 4 5 5
5 5 4 5 6 7 2 1 4 6 6 6 6 5 4 4 4 3 2 2 2 2 3 3 2 2 2 1 1 2 2 2 2 3 3 3 4 5 5 5 5 5 5 5
6 6 4 4 6 7 4 2 4 6 6 5 5 4 3 3 3 2 1 2 3 3 3 3 3 3 2 1 1 2 2 2 3 3 4 4 4 5 5 6 6 6 6 6
4 6 6 5 6 6 2 1 2 5 6 2 3 3 3 3 4 3 2 2 2 2 2 2 2 2 2 1 1 2 2 3 3 4 4 4 4 5 5 6 6 6 6 6
5 5 7 8 8 6 1 1 3 5 3 1 2 3 3 4 4 4 3 3 2 2 2 1 1 2 2 2 2 3 3 3 4 4 4 4 4 4 5 5 5 5 5 6
6 5 7 7 8 5 2 4 4 2 2 0 1 2 3 3 3 2 2 2 2 2 1 1 1 2 2 2 3 3 3 3 3 3 3 3 3 3 3 4 4 4 5 5
7 6 4 6 5 2 3 3 2 2 2 2 3 3 3 3 3 2 2 2 2 2 1 1 2 2 1 2 3 3 3 3 2 3 3 3 3 3 3 3 3 3 4 4
5 5 6 7 6 5 4 4 4 4 4 3 3 2 3 3 3 2 2 2 2 2 1 1 2 2 2 2 2 3 3 2 3 3 3 3 3 3 3 3 3 3 4 4
5 4 6 9 7 5 5 5 5 4 3 3 2 2 3 2 2 2 2 2 2 2 1 2 2 2 2 2 2 2 2 2 3 4 3 3 3 3 3 3 3 4 4 4
6 7 8 7 6 5 5 4 4 4 4 3 3 2 2 2 2 2 2 1 1 1 1 1 2 2 2 2 2 2 2 3 4 4 4 3 3 3 3 3 3 3 4 4
Wind_Direction
150 165 166 192 221 258 231 215 201 176 169 186 195 218 204 193 201 212 208 204 201 197 184 171 166 166 169 163 152 137 132 129 126 118 96 67 56 40 43 38 36 33 31 35
167 175 262 289 210 213 220 222 202 156 158 202 205 237 231 206 215 223 227 219 211 205 194 180 175 179 181 175 169 165 166 162 162 140 97 55 54 38 37 34 31 32 31 35
180 159 193 208 207 217 224 241 238 211 166 197 226 218 195 189 207 220 233 230 217 207 205 190 185 187 189 192 190 193 183 166 160 159 146 130 115 106 74 40 31 25 27 35
209 226 220 228 240 239 235 249 238 217 221 218 235 242 195 202 200 220 227 216 211 205 203 193 187 183 190 198 197 200 185 172 166 168 172 176 176 352 359 9 40 37 37 49
186 199 238 248 263 248 247 213 214 222 230 236 234 252 213 176 241 265 227 213 202 199 200 192 186 185 188 188 190 193 184 173 170 184 176 195 201 213 145 28 30 24 51 54
214 224 285 285 271 232 183 178 181 209 230 237 248 250 245 200 251 272 222 192 178 172 186 190 183 178 180 176 175 169 167 162 172 190 191 198 204 206 186 174 7 349 31 57
206 198 237 279 234 179 206 226 222 214 220 237 214 243 243 104 295 273 259 203 160 151 159 172 182 185 183 174 166 165 164 169 177 193 209 220 229 229 229 236 243 290 329 346
227 221 220 263 261 237 214 236 249 259 254 245 202 239 224 106 220 240 209 157 148 146 148 165 175 182 187 184 178 175 172 178 183 192 207 235 244 246 248 255 261 269 299 324
239 221 166 241 262 254 220 229 272 269 259 250 222 224 229 208 201 171 141 122 140 143 144 160 168 173 183 191 188 189 190 192 187 192 200 207 225 234 251 252 249 247 282 43
267 244 215 190 192 89 282 229 227 240 249 251 235 235 233 213 226 203 210 198 155 137 143 143 163 173 182 193 196 190 190 194 194 196 199 197 209 212 251 257 239 243 223 166
252 246 208 191 224 233 186 201 240 247 257 266 264 253 33 282 296 254 229 203 185 171 168 150 147 153 156 148 179 192 192 194 198 202 204 202 202 194 208 234 247 249 225 208
237 255 241 225 207 264 235 239 242 253 249 250 266 273 78 31 313 292 289 267 166 162 156 146 127 123 135 143 179 198 205 200 203 209 203 201 201 200 211 227 237 240 231 225
225 244 240 214 194 191 216 229 239 255 259 249 251 249 89 24 329 325 303 281 160 168 153 126 109 112 129 136 217 222 228 220 213 216 218 218 219 221 229 238 232 226 229 230
243 246 253 260 285 247 234 236 234 239 248 251 251 264 277 302 320 329 312 236 173 187 168 112 112 130 113 106 254 257 253 237 217 216 224 232 239 238 239 239 232 228 229 233
247 249 250 264 271 258 254 253 239 239 251 260 263 267 281 298 306 308 282 229 217 212 248 254 221 228 212 213 298 293 288 253 222 218 227 234 240 237 235 241 237 237 241 243
237 243 249 249 246 253 260 255 244 244 250 252 258 267 281 294 293 293 273 242 248 260 264 264 258 252 246 251 266 271 289 292 242 226 232 243 248 242 235 239 241 239 243 245
223 231 244 249 244 256 252 249 238 233 237 247 254 267 274 269 277 281 270 250 264 266 260 261 259 252 250 255 257 260 272 275 267 257 248 245 245 247 243 241 240 238 239 241
232 231 243 254 244 243 236 125 226 227 239 244 253 268 277 286 288 281 267 275 273 265 265 265 265 262 264 259 264 269 265 263 267 272 270 264 253 250 252 248 242 241 244 242
227 224 232 243 249 255 246 236 235 236 248 245 245 257 275 297 278 246 278 292 282 268 264 263 264 263 256 248 254 254 254 268 271 272 274 272 263 256 251 250 247 244 242 244
200 217 230 236 250 252 266 143 227 234 239 217 244 257 255 263 272 299 322 303 301 302 283 279 274 265 249 250 251 248 255 266 276 279 280 280 272 263 258 257 257 252 250 249
196 208 223 237 247 256 323 137 190 227 283 145 245 257 242 253 296 324 324 316 316 311 300 292 264 252 247 238 241 252 264 274 283 285 287 289 282 274 270 269 264 258 252 253
220 217 219 227 236 245 125 165 208 284 29 72 250 250 249 264 296 316 321 320 320 321 314 289 269 266 248 236 246 260 270 285 290 289 289 289 291 291 282 275 271 262 254 252
223 229 237 232 248 341 180 218 274 312 276 267 260 253 241 252 271 296 304 314 317 311 300 287 278 271 252 241 252 265 278 289 287 287 290 292 297 294 286 275 270 268 264 258
229 230 238 249 254 264 247 249 264 273 274 269 258 240 230 248 265 285 299 308 316 314 305 292 278 271 264 258 266 280 288 280 276 282 289 294 294 293 289 286 279 276 274 272
246 217 239 252 262 266 252 257 262 263 261 256 251 241 241 249 259 279 290 303 309 304 296 278 272 271 275 268 281 292 288 279 278 283 286 289 291 291 291 290 288 277 279 283
230 232 241 257 256 257 261 259 263 255 255 253 252 258 254 245 252 270 288 300 307 302 291 285 288 288 283 270 282 288 286 281 279 282 285 287 285 283 283 286 295 298 280 293
Height
1513 1513 1513 1513 1513 1513 1513 1514 1516 1518 1519 1521 1522 1522 1523 1525 1527 1527 1528 1529 1531 1532 1534 1535 1536 1537 1538 1538 1539 1539 1539 1539 1539 1539 1538 1538 1538 1538 1537 1537 1536 1536 1535 1535
1513 1515 1515 1515 1515 1515 1514 1515 1516 1518 1519 1520 1520 1521 1521 1523 1525 1526 1527 1528 1529 1531 1532 1534 1535 1536 1536 1537 1537 1538 1538 1538 1538 1538 1538 1538 1538 1537 1537 1536 1536 1535 1535 1534
1513 1516 1516 1516 1516 1515 1515 1515 1515 1518 1520 1519 1520 1520 1519 1521 1524 1525 1526 1526 1527 1529 1530 1532 1533 1534 1534 1535 1536 1536 1537 1537 1537 1537 1537 1537 1537 1537 1537 1536 1535 1535 1534 1533
1514 1515 1516 1515 1515 1514 1515 1514 1515 1517 1518 1518 1519 1522 1516 1517 1520 1522 1523 1525 1526 1527 1529 1530 1531 1532 1533 1534 1535 1535 1536 1536 1536 1537 1536 1537 1537 1537 1536 1536 1535 1534 1533 1532
1515 1516 1516 1516 1516 1515 1515 1515 1515 1515 1515 1516 1516 1519 1515 1515 1518 1519 1521 1523 1525 1526 1527 1528 1530 1531 1532 1533 1533 1534 1535 1535 1535 1536 1535 1535 1536 1536 1535 1535 1534 1534 1533 1532
1515 1517 1517 1516 1516 1516 1515 1516 1515 1514 1513 1521 1517 1518 1518 1514 1516 1517 1520 1522 1524 1525 1526 1527 1528 1529 1530 1531 1532 1532 1533 1533 1534 1534 1534 1534 1535 1534 1534 1534 1533 1533 1532 1531
1516 1516 1517 1517 1515 1515 1514 1515 1519 1520 1520 1520 1515 1518 1517 1514 1516 1518 1520 1521 1523 1524 1524 1525 1526 1527 1528 1529 1530 1530 1531 1531 1532 1532 1533 1533 1533 1533 1533 1532 1532 1532 1531 1530
1518 1519 1517 1517 1516 1514 1513 1513 1520 1525 1522 1518 1517 1518 1514 1515 1518 1519 1520 1521 1522 1523 1524 1524 1525 1526 1527 1528 1528 1529 1529 1529 1530 1530 1531 1531 1531 1531 1531 1531 1531 1531 1530 1529
1514 1518 1516 1517 1516 1514 1513 1513 1513 1515 1516 1519 1515 1514 1515 1515 1517 1518 1519 1520 1521 1522 1522 1523 1524 1525 1525 1526 1526 1527 1528 1528 1528 1528 1529 1529 1529 1529 1529 1529 1529 1529 1529 1528
1513 1516 1515 1517 1516 1517 1514 1513 1514 1516 1521 1520 1516 1513 1512 1512 1513 1515 1517 1518 1520 1521 1522 1522 1523 1523 1524 1524 1525 1526 1526 1526 1526 1526 1527 1527 1527 1527 1527 1527 1527 1527 1527 1527
1513 1514 1516 1515 1515 1514 1516 1517 1515 1513 1513 1518 1519 1515 1509 1510 1512 1514 1516 1518 1519 1520 1521 1521 1522 1522 1523 1523 1523 1524 1524 1524 1524 1525 1525 1525 1525 1525 1525 1525 1525 1525 1525 1525
1515 1512 1513 1513 1514 1515 1513 1513 1514 1516 1514 1513 1515 1517 1510 1512 1514 1515 1516 1517 1518 1519 1520 1520 1521 1521 1521 1521 1521 1522 1522 1523 1523 1523 1523 1523 1523 1523 1523 1523 1523 1523 1523 1523
1515 1513 1514 1514 1516 1516 1514 1514 1514 1513 1511 1511 1514 1515 1511 1512 1513 1515 1516 1517 1518 1518 1519 1519 1519 1519 1519 1519 1520 1520 1521 1521 1521 1521 1521 1522 1521 1521 1521 1521 1521 1521 1521 1521
1516 1511 1512 1514 1510 1511 1513 1515 1515 1513 1512 1509 1509 1509 1509 1510 1512 1514 1515 1516 1517 1517 1518 1518 1518 1518 1518 1518 1518 1519 1519 1519 1519 1519 1519 1519 1519 1519 1519 1519 1519 1518 1518 1519
1515 1512 1510 1510 1510 1512 1513 1513 1513 1512 1509 1509 1507 1508 1507 1508 1511 1513 1514 1515 1516 1516 1516 1516 1516 1517 1517 1517 1517 1517 1517 1517 1517 1517 1517 1517 1517 1517 1516 1516 1516 1516 1516 1516
1514 1512 1511 1512 1511 1512 1512 1510 1510 1510 1509 1508 1508 1508 1507 1510 1511 1512 1512 1513 1514 1514 1514 1514 1514 1515 1515 1515 1514 1514 1514 1514 1515 1515 1515 1514 1514 1514 1513 1513 1513 1513 1513 1513
1512 1512 1512 1509 1509 1512 1510 1506 1506 1507 1507 1507 1506 1506 1507 1509 1510 1511 1511 1511 1512 1512 1512 1512 1512 1513 1512 1513 1512 1512 1512 1512 1512 1512 1512 1512 1511 1511 1511 1510 1510 1510 1510 1510
1512 1511 1511 1510 1510 1514 1504 1503 1504 1505 1505 1505 1505 1506 1508 1509 1509 1510 1510 1510 1511 1511 1511 1510 1510 1510 1510 1510 1510 1511 1510 1510 1510 1509 1509 1509 1509 1508 1508 1507 1507 1506 1506 1506
1512 1511 1511 1510 1508 1503 1502 1503 1504 1504 1503 1504 1504 1506 1507 1508 1508 1508 1509 1509 1509 1509 1509 1508 1508 1508 1508 1508 1508 1508 1508 1508 1507 1507 1506 1506 1506 1505 1505 1504 1503 1503 1503 1503
1511 1510 1509 1509 1510 1504 1500 1501 1503 1505 1502 1502 1503 1504 1506 1507 1504 1505 1507 1507 1507 1507 1506 1506 1505 1506 1505 1506 1506 1506 1506 1505 1505 1504 1504 1503 1502 1502 1501 1501 1500 1499 1499 1499
1508 1509 1508 1506 1506 1499 1500 1502 1504 1506 1500 1502 1503 1504 1505 1505 1505 1506 1505 1505 1504 1504 1504 1503 1503 1503 1503 1503 1503 1503 1503 1503 1502 1502 1501 1500 1499 1498 1498 1497 1496 1496 1495 1495
1503 1504 1505 1504 1504 1502 1501 1502 1502 1500 1501 1501 1502 1503 1504 1504 1504 1504 1504 1503 1502 1502 1501 1501 1501 1501 1501 1500 1501 1501 1501 1500 1499 1498 1498 1497 1496 1495 1494 1493 1492 1492 1491 1491
1501 1500 1498 1500 1499 1499 1500 1500 1501 1501 1501 1501 1501 1502 1502 1502 1502 1502 1502 1501 1501 1500 1499 1499 1499 1498 1498 1498 1498 1498 1498 1497 1496 1495 1495 1494 1493 1492 1491 1490 1489 1489 1488 1487
1498 1501 1500 1498 1497 1499 1500 1500 1500 1500 1500 1500 1500 1500 1500 1500 1500 1500 1500 1499 1499 1498 1497 1497 1497 1496 1496 1495 1495 1495 1495 1494 1494 1493 1492 1491 1490 1489 1488 1487 1486 1485 1485 1484
1497 1499 1497 1495 1496 1497 1497 1498 1498 1498 1498 1498 1498 1498 1498 1498 1498 1498 1498 1497 1496 1496 1495 1495 1495 1494 1494 1493 1493 1493 1492 1492 1491 1490 1489 1488 1487 1486 1485 1484 1483 1482 1481 1480
1496 1496 1495 1492 1493 1494 1495 1496 1496 1496 1496 1496 1496 1496 1496 1496 1496 1496 1496 1495 1495 1494 1494 1493 1493 1492 1492 1491 1491 1490 1490 1489 1488 1487 1486 1485 1484 1483 1482 1480 1479 1478 1477 1476